{"data":{"norad_id":61781,"epoch":"2026-09-19T22:25:56.937792Z","epoch_age_seconds":63323,"freshness":"FRESH","line1":"1 61781U 24199AY  26262.93468678  .00005757  00000+0  16144-3 0  9999","line2":"2 61781  97.2840 130.7564 0012522 335.8559  24.2097 15.36904828148475","mean_motion":15.36904828,"eccentricity":0.0012522,"inclination_deg":97.284,"raan_deg":130.7564,"arg_perigee_deg":335.8559,"mean_anomaly_deg":24.2097,"bstar":0.00016144,"rev_number":14847,"period_min":93.694806195247,"perigee_km":446.71168632137,"apogee_km":463.82526699712,"semimajor_km":6833.4054766592,"source":"CELESTRAK","updated_at":"2026-09-20T09:00:45.241542Z"}}